www.pogodaiklimat.ru

Погода и климат >> Архив погоды >> Австралия >> Weipa Aero


ПОГОДА в Weipa Aero

  • Прогноз погоды в Weipa Aero
  • Монитор погоды в Weipa Aero
  • Климат города

АРХИВ ПОГОДЫ в Weipa Aero

Время (UTC), дата Ветер
(напр.,м/с)
 
Видим.   Явления Облачность Т
(С)
Тd
(С)
f
(%)
Тe
(С)
Тes
(С)
Комфортность P
(гПа)
Po
(гПа)
Тmin
(С)
Tmax
(С)
R
(мм)
R24
(мм)
S
(см)
20 10.10 штиль 0 н/о н/о +19.3 +16.9 86 +21 +21 комфорт 1011.9 1009.8
21 10.10 штиль 0 н/о н/о +21.5 +18.9 85 +26 +26 душно 1012.5 1010.4
23 10.10 В 5 н/о 10/10 600 м
[]
+26.0 +18.9 65 +31 +31 очень
душно
1013.5 1011.4
00 11.10 В 6 н/о н/о +28.4 +18.2 54 +33 +33 очень
душно
1012.8 1010.7
02 11.10 СВ 4 н/о н/о +31.4 +16.6 41 +35 +35 очень
душно
1011.4 1009.3 +19.3
03 11.10 В 5 н/о н/о +33.6 +15.1 33 +35 +35 душно 1010.2 1008.1
05 11.10 З 5 н/о 1/0 2000 м
[]
+31.4 +19.4 49 +37 +44 очень
душно
1008.9 1006.8
06 11.10 З 6 н/о н/о +30.2 +20.7 57 +37 +37 очень
душно
1008.8 1006.7
08 11.10 З 5 н/о н/о +27.3 +21.1 69 +34 +34 очень
душно
1010.0 1007.9
09 11.10 З 3 н/о н/о +26.6 +20.4 69 +33 +33 очень
душно
1011.0 1008.9
11 11.10 Ю 2 н/о 9/9 1000 м
[]
+26.4 +20.3 69 +33 +33 очень
душно
1013.1 1011.0
12 11.10 Ю 1 н/о н/о +26.0 +20.1 70 +32 +32 очень
душно
1013.9 1011.8
14 11.10 В 1 н/о н/о +24.3 +20.0 77 +30 +30 очень
душно
1013.5 1011.4 +36.1
15 11.10 В 1 н/о н/о +23.2 +19.6 80 +30 +30 очень
душно
1012.9 1010.8
17 11.10 В 2 н/о н/о +22.5 +19.5 83 +29 +29 очень
душно
1012.4 1010.3
18 11.10 В 1 н/о н/о +22.3 +19.8 86 +28 +28 душно 1012.1 1010.0
20 11.10 Ю 2 н/о 9/9 600 м
[]
+22.0 +19.5 86 +28 +28 душно 1013.2 1011.1
21 11.10 В 2 н/о н/о +22.7 +19.7 83 +29 +29 очень
душно
1013.4 1011.3
23 11.10 В 4 н/о н/о +27.9 +19.1 59 +33 +33 очень
душно
1013.8 1011.7
00 12.10 В 3 н/о н/о +29.5 +18.9 53 +35 +35 очень
душно
1013.2 1011.1
02 12.10 В 3 н/о н/о +33.5 +15.0 33 +35 +35 душно 1011.3 1009.2 +21.7
03 12.10 СВ 3 н/о н/о +35.2 +14.5 29 +36 +36 очень
жарко
1009.6 1007.5
05 12.10 З 7 н/о н/о +31.0 +20.6 54 +38 +38 очень
душно
1007.7 1005.6
06 12.10 З 6 н/о н/о +30.2 +21.8 61 +39 +39 очень
душно
1007.9 1005.8
08 12.10 З 4 н/о н/о +28.3 +20.8 64 +35 +35 очень
душно
1008.8 1006.7
09 12.10 З 3 н/о н/о +27.7 +21.5 69 +35 +35 очень
душно
1009.6 1007.5
11 12.10 С 2 н/о 8/8 1000 м
[]
+27.6 +20.4 65 +34 +34 очень
душно
1010.8 1008.7
12 12.10 штиль 0 н/о н/о +27.6 +20.9 67 +35 +35 очень
душно
1011.6 1009.5
14 12.10 СВ 2 н/о 9/9 1000 м
[]
+26.3 +21.1 73 +33 +33 очень
душно
1011.8 1009.7 +37.7
15 12.10 СВ 2 н/о н/о +25.9 +20.9 74 +32 +32 очень
душно
1011.6 1009.5
17 12.10 СВ 3 н/о 10/10 1000 м
[]
+25.7 +20.7 74 +32 +32 очень
душно
1010.7 1008.6
18 12.10 В 3 н/о н/о +24.9 +20.6 77 +31 +31 очень
душно
1010.9 1008.8
20 12.10 В 2 н/о н/о +23.5 +20.2 82 +29 +29 душно 1011.9 1009.8
21 12.10 В 3 н/о н/о +24.6 +21.1 81 +31 +31 очень
душно
1012.1 1010.0
23 12.10 В 6 н/о н/о +29.5 +19.8 56 +36 +36 очень
душно
1012.6 1010.5
00 13.10 В 5 н/о н/о +32.0 +19.3 47 +38 +38 очень
душно
1012.2 1010.1
02 13.10 ЮВ 4 н/о н/о +34.0 +15.9 34 +36 +36 душно 1010.3 1008.2 +23.4
03 13.10 ЮВ 5 н/о н/о +35.9 +16.6 32 +38 +38 очень
душно
1009.1 1007.0
05 13.10 З 5 н/о н/о +34.4 +19.6 42 +40 +40 очень
душно
1007.5 1005.4
06 13.10 З 6 н/о н/о +31.5 +22.8 60 +41 +41 опасность
перегрева
1007.8 1005.7
08 13.10 З 5 н/о н/о +28.9 +21.9 66 +37 +37 очень
душно
1008.5 1006.4
09 13.10 З 3 н/о н/о +27.9 +22.2 71 +36 +36 очень
душно
1009.5 1007.4
11 13.10 штиль 0 н/о 6/6 1500 м
[]
+27.6 +22.1 72 +36 +36 очень
душно
1010.7 1008.6
12 13.10 штиль 0 н/о н/о +27.5 +22.2 73 +36 +36 очень
душно
1011.2 1009.1
14 13.10 штиль 0 н/о 9/9 1500 м
[]
+27.0 +22.0 74 +35 +35 очень
душно
1011.5 1009.4 +37.0
15 13.10 штиль 0 н/о н/о +26.8 +22.2 76 +35 +35 очень
душно
1011.4 1009.3
17 13.10 В 2 н/о 10/10 600 м
[]
+26.7 +21.9 75 +34 +34 очень
душно
1010.4 1008.3
18 13.10 В 2 н/о н/о +25.7 +21.4 77 +33 +33 очень
душно
1010.2 1008.1
20 13.10 В 2 н/о н/о +24.5 +21.2 82 +31 +31 очень
душно
1011.3 1009.2
21 13.10 В 2 н/о н/о +25.4 +21.7 80 +33 +33 очень
душно
1011.9 1009.8
23 13.10 СВ 6 н/о н/о +29.3 +21.8 64 +38 +38 очень
душно
1012.7 1010.6
00 14.10 В 5 н/о н/о +31.1 +21.0 55 +39 +39 очень
душно
1012.2 1010.1
02 14.10 В 4 н/о 4/4 1000 м
[]
+33.9 +19.6 43 +40 +49 очень
душно
1010.2 1008.1 +24.4
03 14.10 В 4 н/о н/о +35.1 +19.5 40 +40 +40 очень
душно
1009.1 1007.0
05 14.10 З 4 н/о 8/0 2000 м
[]
+32.2 +22.6 57 +42 +48 опасность
перегрева
1007.5 1005.4
06 14.10 З 7 н/о н/о +30.6 +24.0 68 +42 +42 опасность
перегрева
1007.6 1005.5
08 14.10 З 5 н/о ливневой дождь 10/10 1500 м
[]
+28.5 +23.6 75 +39 +39 очень
душно
1008.4 1006.3
09 14.10 ЮЗ 2 н/о н/о +27.6 +24.2 82 +39 +39 очень
душно
1009.9 1007.8
11 14.10 СЗ 3 н/о {туман} 10/10 1000 м
[]
+26.8 +23.7 83 +37 +37 очень
душно
1011.4 1009.3
12 14.10 СЗ 2 н/о н/о +26.9 +23.2 80 +36 +36 очень
душно
1012.3 1010.2
14 14.10 штиль 0 н/о ливневой дождь {туман} 10/10 600 м
[]
+26.0 +23.9 88 +36 +36 очень
душно
1012.3 1010.2 +37.5
15 14.10 СЗ 2 н/о н/о +25.9 +23.9 89 +36 +36 очень
душно
1011.9 1009.8
17 14.10 штиль 0 н/о {туман} 8/8 1000 м
[]
+25.3 +22.6 85 +33 +33 очень
душно
1011.0 1008.9
18 14.10 ЮВ 2 н/о н/о +24.5 +22.6 89 +32 +32 очень
душно
1011.0 1008.9
20 14.10 ЮВ 3 н/о 4/4 600 м
[]
+24.5 +22.4 88 +32 +32 очень
душно
1012.2 1010.1
21 14.10 В 3 н/о н/о +25.2 +22.5 85 +33 +33 очень
душно
1013.0 1010.9
23 14.10 В 6 н/о 10/10 600 м
[]
+29.5 +22.5 66 +39 +39 очень
душно
1013.8 1011.7
00 15.10 В 7 н/о н/о +30.5 +20.7 56 +38 +38 очень
душно
1013.4 1011.3
02 15.10 СВ 5 н/о 10/10 1000 м
[]
+33.0 +20.2 47 +39 +39 очень
душно
1011.8 1009.7 +24.4
03 15.10 В 6 н/о н/о +34.1 +18.6 40 +39 +39 очень
душно
1010.4 1008.3
05 15.10 СВ 5 н/о 6/0 2000 м
[]
+35.5 +17.2 34 +39 +44 очень
душно
1008.6 1006.5
06 15.10 В 3 н/о н/о +36.0 +17.2 33 +39 +39 очень
душно
1007.9 1005.8
08 15.10 З 5 н/о н/о +29.0 +23.9 74 +40 +40 очень
душно
1009.1 1007.0
09 15.10 З 3 н/о н/о +28.0 +23.8 78 +39 +39 очень
душно
1009.7 1007.6
11 15.10 штиль 0 н/о н/о +27.3 +23.5 80 +37 +37 очень
душно
1011.2 1009.1
12 15.10 СВ 2 н/о н/о +26.9 +23.4 81 +36 +36 очень
душно
1012.1 1010.0
14 15.10 В 3 н/о 3/3 600 м
[]
+26.3 +21.1 73 +33 +33 очень
душно
1012.9 1010.8 +36.8
15 15.10 СВ 1 н/о н/о +25.4 +21.1 77 +32 +32 очень
душно
1012.0 1009.9
17 15.10 штиль 0 н/о 1/1 600 м
[]
+23.5 +21.0 86 +30 +30 очень
душно
1011.2 1009.1
18 15.10 штиль 0 н/о н/о +22.9 +20.8 88 +30 +30 очень
душно
1011.2 1009.1
20 15.10 ЮВ 2 9000 м н/о +22.9 +21.0 89 +30 +30 очень
душно
1012.2 1010.1
21 15.10 ЮВ 2 н/о н/о +23.6 +21.3 87 +30 +30 очень
душно
1012.7 1010.6
23 15.10 В 4 н/о 3/3 600 м
[]
+28.5 +21.3 65 +36 +40 очень
душно
1013.0 1010.9
00 16.10 В 5 н/о н/о +30.9 +20.2 53 +37 +37 очень
душно
1012.8 1010.7
02 16.10 В 5 н/о 4/4 1500 м
[]
+33.8 +17.9 39 +38 +44 очень
душно
1011.2 1009.1 +22.6
03 16.10 СВ 6 н/о н/о +34.5 +16.4 34 +37 +37 очень
душно
1009.6 1007.5
05 16.10 В 4 н/о 1/0 2000 м
[]
+36.4 +15.0 28 +38 +47 очень
душно
1008.1 1006.0
06 16.10 З 7 н/о н/о +30.3 +23.0 65 +40 +40 очень
душно
1008.3 1006.2
08 16.10 З 5 н/о н/о +28.4 +23.1 73 +38 +38 очень
душно
1009.2 1007.1
09 16.10 З 3 н/о н/о +27.6 +23.2 77 +37 +37 очень
душно
1010.4 1008.3
11 16.10 З 1 н/о н/о +27.0 +23.3 80 +36 +36 очень
душно
1012.0 1009.9
12 16.10 ЮЗ 1 н/о н/о +26.6 +23.1 81 +36 +36 очень
душно
1012.6 1010.5
14 16.10 В 2 н/о н/о +26.1 +22.8 82 +35 +35 очень
душно
1012.0 1009.9 +37.0
15 16.10 В 4 н/о н/о +25.6 +22.7 84 +34 +34 очень
душно
1011.6 1009.5
17 16.10 В 5 н/о н/о +24.5 +20.4 78 +30 +30 очень
душно
1010.7 1008.6
18 16.10 В 4 н/о н/о +24.0 +20.5 81 +30 +30 очень
душно
1010.7 1008.6
20 16.10 СВ 3 н/о н/о +22.9 +20.4 86 +30 +30 очень
душно
1011.1 1009.0
21 16.10 В 3 н/о н/о +24.1 +20.6 81 +30 +30 очень
душно
1011.6 1009.5
23 16.10 В 6 н/о н/о +28.0 +19.8 61 +34 +34 очень
душно
1012.7 1010.6
00 17.10 В 5 н/о н/о +30.6 +18.7 49 +36 +36 очень
душно
1012.4 1010.3
02 17.10 В 6 н/о 1/0
[]
+34.1 +16.5 35 +37 +46 очень
душно
1010.9 1008.8 +22.9
03 17.10 В 4 н/о н/о +34.8 +14.1 29 +36 +36 душно 1009.2 1007.1
05 17.10 ЮВ 5 н/о н/о +36.5 +13.3 25 +37 +37 очень
жарко
1007.1 1005.0
06 17.10 З 7 н/о н/о +32.2 +22.6 57 +42 +42 опасность
перегрева
1007.1 1005.0
08 17.10 З 5 н/о 10/0
[]
+28.6 +22.8 71 +38 +38 очень
душно
1008.9 1006.8
09 17.10 З 3 н/о н/о +28.3 +22.8 72 +38 +38 очень
душно
1010.1 1008.0
11 17.10 штиль 0 н/о 3/3 1500 м
[]
+27.5 +21.5 70 +35 +35 очень
душно
1011.7 1009.6
12 17.10 В 1 н/о н/о +26.9 +22.3 76 +35 +35 очень
душно
1012.0 1009.9
14 17.10 СВ 3 н/о 10/10 600 м
[]
+26.3 +18.7 63 +31 +31 душно 1011.6 1009.5 +37.7
15 17.10 В 3 н/о н/о +24.8 +18.7 69 +30 +30 душно 1011.5 1009.4
17 17.10 В 4 н/о н/о +23.7 +19.0 75 +28 +28 душно 1010.7 1008.6
18 17.10 В 2 н/о н/о +22.6 +18.8 79 +28 +28 душно 1010.8 1008.7

 

Местоположение метеостанции Weipa Aero (Квинсленд, Австралия): широта -12.68 долгота 141.91 высота над уровнем моря 19 м.

В архиве по умолчанию представлена погода в Weipa Aero за последнюю неделю. Архивные данные за месяц целиком и за предыдущие месяцы, начиная с января 2011 года, Вы можете получить, выбрав интересующий диапазон дат из раскрывающегося списка и нажав кнопку "Ввод!".


*Определитесь, кто Вы:
робот инопланетянин человек

Внимание! Время в таблицах - всемирное. Для получения местного времени необходимо прибавить поправку, которая в Weipa Aero равна 10 ч.

Смотрите также архив погоды в соседних городах и на ближайших метеорологических станциях:

Погода в Scherger Raaf (Квинсленд, Австралия) (21 км)
Погода в Lockhart River Airport (Квинсленд, Австралия) (151 км)
Погода в Coen Airport (Квинсленд, Австралия) (179 км)
Погода в Horn Island (Квинсленд, Австралия) (237 км)
Погода в Kowanyama Airport (Квинсленд, Австралия) (312 км)
Погода в Coconut Island (Квинсленд, Австралия) (319 км)
Погода в Palmerville (Квинсленд, Австралия) (436 км)
Погода в Cape Flattery (Квинсленд, Австралия) (448 км)
Погода в Cooktown Airport (Квинсленд, Австралия) (468 км)
Погода в Merauke (Индонезия) (497 км)

Пояснения к столбцам:

Ветер - указаны скорость ветра в м/с - средняя за 10 мин, порывы в срок и между сроками (в фигурных скобках) и направление, откуда дует ветер: С - северный, СВ - северо-восточный, В - восточный, ЮВ - юго-восточный, Ю - южный, ЮЗ - юго-западный, З - западный, СЗ - северо-западный.
Видимость - горизонтальная дальность видимости в метрах или километрах. При видимости от 1 до 10 км при отсутствии осадков обычно наблюдается дымка, при ухудшении видимости до 1 км и менее - туман. В сухую погоду видимость может ухудшаться дымом, пылью или мглою.
Явления - указаны атмосферные явления, наблюдавшиеся в срок или в последний час перед сроком; фигурными скобками обозначены явления, наблюдавшиеся между сроками (за 1-3 часа до срока); квадратными скобками обозначены град или гололедные отложения с указанием их диаметра в мм.
Облачность - указаны через наклонную черту общая и нижняя облачность в баллах и высота нижней границы облаков в метрах; квадратными скобками обозначены формы облаков: Ci - перистые, Cs - перисто-слоистые, Cc - перисто-кучевые, Ac - высококучевые, As - высокослоистые, Sc - слоисто-кучевые, Ns - слоисто-дождевые, Cu - кучевые, Cb - кучево-дождевые. Подробнее классификацию облаков см. в Атласе облаков (PDF).
T - Температура воздуха - температура, измеренная на высоте 2 м над землей.
Td - Температура точки росы - температура, при понижении до которой содержащийся в воздухе водяной пар достигнет насыщения.
f - Относительная влажность воздуха - влажноcть воздуха, измеренная на высоте 2 м над землей.
Te - Эффективная температура - температура, которую ощущает одетый по сезону человек в тени. Характеристика душности погоды. При расчете учитывается влияние влажности воздуха и скорости ветра на теплоощущения человека.
Tes - Эффективная температура на солнце - температура, которую ощущает человек, с поправкой на солнечный нагрев. Характеристика знойности погоды. Зависит от высоты солнца над горизонтом, облачности и скорости ветра. Ночью, в пасмурную погоду, а также при ветре 12 м/с и более поправка равна нулю.
P - Атмосферное давление - приведенное к уровню моря атмосферное давление.
Po - Атмосферное давление - измеренное на уровне метеостанции атмосферное давление.
Tmin - Минимальная температура - минимум температуры воздуха на высоте 2 м над землей.
Tmax - Максимальная температура - максимум температуры воздуха на высоте 2 м над землей.
R - Количество осадков - Количество выпавших осадков за период времени, мм. При наведении курсора мыши на число - период времени, за который выпало указанное количество осадков.
R24 - Количество осадков - Количество выпавших осадков за 24 часа, мм.
S - Снежный покров - Высота снежного покрова, см. При наведении курсора мыши на число - состояние снежного покрова и степень покрытия местности в баллах.